Flag for Nepal Weather past 2 weeks in Pokhara, Nepal

Now
72 °F

Scattered clouds.


Feels Like: 77 °F
Forecast: 49 / 76 °F
Wind: 7 mph from Southwest

Location: Kathmandu Airport

Current Time: Oct 26, 2014 at 12:58:15 PM

Latest Report: Oct 26, 2014 at 12:35 PM


Visibility: N/A

Pressure: 30.18 "Hg

Humidity: 50%

Dew point: 52 °F

Location of PokharaLocation

Historic Weather in Pokhara — Graph

°F

Pokhara temperature yesterday

Maximum temperature yesterday: 75 °F (at 1:35 PM)
Minimum temperature yesterday: 55 °F (at 3:35 AM)
Average temperature yesterday: 63 °F

Past Weeks' High & Low Weather Summary

 TemperatureHumidityPressure
High81 °F (Oct 11, 1:35 PM)100% (Oct 14, 1:35 AM)30.30 "Hg (Oct 14, 1:35 AM)
Low52 °F (Oct 22, 5:35 AM)36% (Oct 23, 1:35 PM)29.95 "Hg (Oct 11, 1:35 PM)
Average64 °F80%30.13 "Hg
* Reported Oct 11 11:35 AM — Oct 26 11:35 AM, Pokhara, Weather by CustomWeather, © 2014

Note: Actual official high and low records may vary slightly from our data, if they occured in-between our weather recording intervals... More about our weather records

Advertising

Pokhara weather history for previous 24 hours

 ConditionsComfort  
Time TempWeatherWind HumidityBarometerVisibility
11:35 AM
Oct 26
72 °FPassing clouds.5 mph47%30.21 "HgN/A
10:35 AM70 °FPassing clouds.3 mph53%30.24 "HgN/A
9:35 AM68 °FScattered clouds.No wind64%30.24 "Hg5 mi
8:35 AM63 °FPartly sunny.No wind77%30.24 "Hg4 mi
7:35 AM57 °FPassing clouds.3 mph88%30.21 "Hg4 mi
6:35 AM55 °FPassing clouds.3 mph94%30.18 "Hg4 mi
5:35 AM55 °FPartly cloudy.No wind94%30.18 "Hg4 mi
4:35 AM55 °FPassing clouds.No windN/A30.18 "Hg5 mi
3:35 AM55 °FPassing clouds.No wind94%30.15 "Hg5 mi
2:35 AM54 °FPassing clouds.No wind94%30.15 "Hg5 mi
12:35 AM55 °FPassing clouds.3 mph88%30.18 "Hg5 mi
11:35 PM
Oct 25
57 °FPassing clouds.3 mph82%30.18 "Hg5 mi
10:35 PM59 °FPassing clouds.5 mph77%30.21 "Hg5 mi
9:35 PM59 °FPassing clouds.5 mph82%30.18 "Hg5 mi
8:35 PM61 °FPassing clouds.6 mph83%30.18 "Hg5 mi
7:35 PM63 °FPassing clouds.3 mph77%30.18 "HgN/A
6:35 PM63 °FPassing clouds.6 mph77%30.15 "HgN/A
4:35 PM68 °FScattered clouds.9 mph69%30.09 "HgN/A
3:35 PM70 °FScattered clouds.12 mph64%30.07 "HgN/A
2:35 PM72 °FPartly sunny.12 mph65%30.07 "Hg5 mi
1:35 PM75 °FScattered clouds.10 mph54%30.07 "HgN/A
12:35 PM73 °FPassing clouds.8 mph53%30.09 "HgN/A
Weather by CustomWeather, © 2014

See weather overviewHow to use our weather pages